Tracking 19286 objects as of 19-Nov-2018
HD Live streaming from Space Station
objects crossing your sky now

CHINASAT 20

Track CHINASAT 20 now!
CHINASAT 20 is classified as:


NORAD ID: 28082
Int'l Code: 2003-052A
Perigee: 36,117.8 km
Apogee: 36,128.3 km
Inclination: 4.5 °
Period: 1,453.0 minutes
Semi major axis: 42494 km
RCS: 12.5893 m2 (large)
Launch date: November 14, 2003
Source: People's Republic of China (PRC)
Launch site: Xichang Space Center, China (XSC)

Dedicated military communications satellite.
aabbcc
Your satellite tracking list
Your tracking list is empty




NASA's NSSDC Master Catalog

Two Line Element Set (TLE):
1 28082U 03052A   18322.77955922 -.00000015 +00000-0 +00000-0 0  9999
2 28082 004.5326 068.9445 0001234 157.9223 201.9289 00.99108499054972
Source of the keplerian elements: AFSPC